timestamp,wind_dir_avg,wind_spd_max_dir,wind_spd_avg,wind_spd_gust,battery_voltage,lat,long
2017-11-27 00:00:00+00:00,229.0,233.0,9.33,11.31,,47.59359,-54.27349
2017-11-27 00:10:00+00:00,235.0,230.0,11.16,12.96,,47.59359,-54.27349
2017-11-27 00:20:00+00:00,229.0,235.0,10.04,12.06,,47.59359,-54.27349
2017-11-27 00:30:00+00:00,230.0,237.0,9.38,10.62,,47.59359,-54.27349
2017-11-27 00:40:00+00:00,233.0,235.0,9.35,11.52,,47.59359,-54.27349
2017-11-27 00:50:00+00:00,226.0,231.0,9.8,11.7,,47.59359,-54.27349
2017-11-27 01:00:00+00:00,224.0,227.0,12.76,15.95,,47.59359,-54.27349
2017-11-27 01:10:00+00:00,224.0,223.0,12.29,14.09,,47.59359,-54.27349
2017-11-27 01:20:00+00:00,226.0,224.0,11.43,12.92,,47.59359,-54.27349
2017-11-27 01:30:00+00:00,229.0,227.0,9.97,10.75,,47.59359,-54.27349
2017-11-27 01:40:00+00:00,232.0,232.0,10.61,12.82,,47.59359,-54.27349
2017-11-27 01:50:00+00:00,235.0,234.0,11.58,13.52,,47.59359,-54.27349
2017-11-27 02:00:00+00:00,236.0,235.0,12.32,13.98,,47.59359,-54.27349
2017-11-27 02:10:00+00:00,231.0,235.0,11.62,13.94,,47.59359,-54.27349
2017-11-27 02:20:00+00:00,244.0,244.0,10.83,13.43,,47.59359,-54.27349
2017-11-27 02:30:00+00:00,238.0,240.0,10.69,12.49,,47.59359,-54.27349
2017-11-27 02:40:00+00:00,239.0,242.0,10.9,14.1,,47.59359,-54.27349
2017-11-27 02:50:00+00:00,240.0,240.0,10.11,12.2,,47.59359,-54.27349
2017-11-27 03:00:00+00:00,236.0,239.0,10.23,11.91,,47.59359,-54.27349
2017-11-27 03:10:00+00:00,233.0,230.0,11.53,13.85,,47.59359,-54.27349
2017-11-27 03:20:00+00:00,230.0,227.0,12.03,13.95,,47.59359,-54.27349
2017-11-27 03:30:00+00:00,228.0,231.0,11.21,12.96,,47.59359,-54.27349
2017-11-27 03:40:00+00:00,236.0,240.0,11.59,13.34,,47.59359,-54.27349
2017-11-27 03:50:00+00:00,229.0,225.0,11.52,15.13,,47.59359,-54.27349
2017-11-27 04:00:00+00:00,229.0,228.0,10.52,12.31,,47.59359,-54.27349
2017-11-27 04:10:00+00:00,233.0,237.0,9.71,10.88,,47.59359,-54.27349
2017-11-27 04:20:00+00:00,232.0,232.0,9.37,10.9,,47.59359,-54.27349
2017-11-27 04:30:00+00:00,229.0,231.0,10.29,12.05,,47.59359,-54.27349
2017-11-27 04:40:00+00:00,230.0,232.0,10.53,11.99,,47.59359,-54.27349
2017-11-27 04:50:00+00:00,231.0,229.0,11.66,13.59,,47.59359,-54.27349
2017-11-27 05:00:00+00:00,233.0,236.0,11.37,13.57,,47.59359,-54.27349
2017-11-27 05:10:00+00:00,233.0,231.0,10.32,12.07,,47.59359,-54.27349
2017-11-27 05:20:00+00:00,236.0,235.0,10.14,12.1,,47.59359,-54.27349
2017-11-27 05:30:00+00:00,231.0,228.0,8.46,9.92,,47.59359,-54.27349
2017-11-27 05:40:00+00:00,228.0,228.0,10.48,12.58,,47.59359,-54.27349
2017-11-27 05:50:00+00:00,229.0,231.0,10.87,11.92,,47.59359,-54.27349
2017-11-27 06:00:00+00:00,229.0,228.0,10.39,11.28,,47.59359,-54.27349
2017-11-27 06:10:00+00:00,230.0,229.0,9.05,10.81,,47.59359,-54.27349
2017-11-27 06:20:00+00:00,229.0,236.0,9.93,12.14,,47.59359,-54.27349
2017-11-27 06:30:00+00:00,227.0,234.0,11.15,13.44,,47.59359,-54.27349
2017-11-27 06:40:00+00:00,222.0,223.0,10.76,12.52,,47.59359,-54.27349
2017-11-27 06:50:00+00:00,226.0,227.0,10.77,12.27,,47.59359,-54.27349
2017-11-27 07:00:00+00:00,230.0,230.0,11.25,12.71,,47.59359,-54.27349
2017-11-27 07:10:00+00:00,229.0,231.0,10.45,12.57,,47.59359,-54.27349
2017-11-27 07:20:00+00:00,233.0,231.0,10.28,11.66,,47.59359,-54.27349
2017-11-27 07:30:00+00:00,229.0,233.0,10.92,14.17,,47.59359,-54.27349
2017-11-27 07:40:00+00:00,228.0,227.0,10.67,12.67,,47.59359,-54.27349
2017-11-27 07:50:00+00:00,227.0,230.0,10.44,11.58,,47.59359,-54.27349
2017-11-27 08:00:00+00:00,226.0,222.0,11.3,13.9,,47.59359,-54.27349
2017-11-27 08:10:00+00:00,228.0,235.0,11.92,13.72,,47.59359,-54.27349
2017-11-27 08:20:00+00:00,228.0,229.0,11.19,13.45,,47.59359,-54.27349
2017-11-27 08:30:00+00:00,227.0,224.0,12.01,13.48,,47.59359,-54.27349
2017-11-27 08:40:00+00:00,229.0,227.0,12.42,15.0,,47.59359,-54.27349
2017-11-27 08:50:00+00:00,229.0,228.0,12.84,14.93,,47.59359,-54.27349
2017-11-27 09:00:00+00:00,229.0,227.0,13.29,15.57,,47.59359,-54.27349
2017-11-27 09:10:00+00:00,238.0,234.0,13.99,15.73,,47.59359,-54.27349
2017-11-27 09:20:00+00:00,237.0,245.0,12.3,14.68,,47.59359,-54.27349
2017-11-27 09:30:00+00:00,234.0,232.0,13.47,15.59,,47.59359,-54.27349
2017-11-27 09:40:00+00:00,233.0,237.0,11.8,15.11,,47.59359,-54.27349
2017-11-27 09:50:00+00:00,242.0,234.0,12.3,15.17,,47.59359,-54.27349
2017-11-27 10:00:00+00:00,238.0,233.0,12.02,15.8,,47.59359,-54.27349
2017-11-27 10:10:00+00:00,233.0,234.0,12.32,15.13,,47.59359,-54.27349
2017-11-27 10:20:00+00:00,240.0,235.0,11.56,13.71,,47.59359,-54.27349
2017-11-27 10:30:00+00:00,261.0,262.0,13.37,15.52,,47.59359,-54.27349
2017-11-27 10:40:00+00:00,279.0,276.0,12.27,13.21,,47.59359,-54.27349
2017-11-27 10:50:00+00:00,273.0,270.0,8.75,11.43,,47.59359,-54.27349
2017-11-27 11:00:00+00:00,267.0,269.0,9.26,10.25,,47.59359,-54.27349
2017-11-27 11:10:00+00:00,268.0,268.0,10.28,13.34,,47.59359,-54.27349
2017-11-27 11:20:00+00:00,268.0,267.0,11.48,13.08,,47.59359,-54.27349
2017-11-27 11:30:00+00:00,262.0,262.0,11.34,12.95,,47.59359,-54.27349
2017-11-27 11:40:00+00:00,280.0,281.0,12.23,14.57,,47.59359,-54.27349
2017-11-27 11:50:00+00:00,269.0,263.0,9.72,11.69,,47.59359,-54.27349
2017-11-27 12:00:00+00:00,264.0,274.0,10.61,12.06,,47.59359,-54.27349
2017-11-27 12:10:00+00:00,268.0,266.0,11.1,13.2,,47.59359,-54.27349
2017-11-27 12:20:00+00:00,266.0,262.0,10.07,12.44,,47.59359,-54.27349
2017-11-27 12:30:00+00:00,269.0,258.0,8.99,11.75,,47.59359,-54.27349
2017-11-27 12:40:00+00:00,272.0,275.0,10.13,12.08,,47.59359,-54.27349
2017-11-27 12:50:00+00:00,266.0,267.0,11.09,12.56,,47.59359,-54.27349
2017-11-27 13:00:00+00:00,257.0,256.0,9.28,10.78,,47.59359,-54.27349
2017-11-27 13:10:00+00:00,253.0,257.0,11.34,12.44,,47.59359,-54.27349
2017-11-27 13:20:00+00:00,251.0,250.0,11.63,13.45,,47.59359,-54.27349
2017-11-27 13:30:00+00:00,250.0,253.0,9.23,10.7,,47.59359,-54.27349
2017-11-27 13:40:00+00:00,255.0,250.0,12.9,14.9,,47.59359,-54.27349
2017-11-27 13:50:00+00:00,264.0,265.0,11.09,13.51,,47.59359,-54.27349
2017-11-27 14:00:00+00:00,256.0,259.0,11.99,14.06,,47.59359,-54.27349
2017-11-27 14:10:00+00:00,250.0,253.0,12.48,14.71,,47.59359,-54.27349
2017-11-27 14:20:00+00:00,255.0,257.0,10.9,13.44,,47.59359,-54.27349
2017-11-27 14:30:00+00:00,245.0,246.0,9.98,11.83,,47.59359,-54.27349
2017-11-27 14:40:00+00:00,241.0,240.0,11.43,13.81,,47.59359,-54.27349
2017-11-27 14:50:00+00:00,258.0,262.0,10.82,12.86,,47.59359,-54.27349
2017-11-27 15:00:00+00:00,248.0,255.0,14.44,18.28,,47.59359,-54.27349
2017-11-27 15:10:00+00:00,249.0,246.0,12.67,14.68,,47.59359,-54.27349
2017-11-27 15:20:00+00:00,270.0,269.0,12.26,13.79,,47.59359,-54.27349
2017-11-27 15:30:00+00:00,266.0,275.0,10.36,12.13,,47.59359,-54.27349
2017-11-27 15:40:00+00:00,269.0,270.0,10.95,12.51,,47.59359,-54.27349
2017-11-27 15:50:00+00:00,254.0,248.0,10.6,12.43,,47.59359,-54.27349
2017-11-27 16:00:00+00:00,250.0,250.0,12.56,14.6,,47.59359,-54.27349
2017-11-27 16:10:00+00:00,257.0,257.0,12.23,13.29,,47.59359,-54.27349
2017-11-27 16:20:00+00:00,257.0,257.0,12.71,14.26,,47.59359,-54.27349
2017-11-27 16:30:00+00:00,251.0,254.0,12.13,13.87,,47.59359,-54.27349
2017-11-27 16:40:00+00:00,252.0,256.0,11.69,13.14,,47.59359,-54.27349
2017-11-27 16:50:00+00:00,260.0,260.0,12.01,13.98,,47.59359,-54.27349
2017-11-27 17:00:00+00:00,256.0,245.0,12.53,14.22,,47.59359,-54.27349
2017-11-27 17:10:00+00:00,251.0,242.0,13.97,15.73,,47.59359,-54.27349
2017-11-27 17:20:00+00:00,251.0,246.0,11.91,15.07,,47.59359,-54.27349
2017-11-27 17:30:00+00:00,250.0,251.0,13.75,16.07,,47.59359,-54.27349
2017-11-27 17:40:00+00:00,251.0,256.0,10.81,12.92,,47.59359,-54.27349
2017-11-27 17:50:00+00:00,254.0,254.0,11.83,14.16,,47.59359,-54.27349
2017-11-27 18:00:00+00:00,249.0,253.0,11.42,15.66,,47.59359,-54.27349
2017-11-27 18:10:00+00:00,254.0,262.0,12.3,14.23,,47.59359,-54.27349
2017-11-27 18:20:00+00:00,257.0,258.0,10.95,12.83,,47.59359,-54.27349
2017-11-27 18:30:00+00:00,253.0,253.0,11.62,12.78,,47.59359,-54.27349
2017-11-27 18:40:00+00:00,261.0,262.0,11.18,12.85,,47.59359,-54.27349
2017-11-27 18:50:00+00:00,262.0,254.0,9.74,10.93,,47.59359,-54.27349
2017-11-27 19:00:00+00:00,248.0,254.0,8.32,10.45,,47.59359,-54.27349
2017-11-27 19:10:00+00:00,250.0,254.0,10.19,12.91,,47.59359,-54.27349
2017-11-27 19:20:00+00:00,245.0,250.0,11.21,13.15,,47.59359,-54.27349
2017-11-27 19:30:00+00:00,250.0,255.0,8.89,10.25,,47.59359,-54.27349
2017-11-27 19:40:00+00:00,255.0,258.0,8.72,9.66,,47.59359,-54.27349
2017-11-27 19:50:00+00:00,249.0,248.0,9.07,10.73,,47.59359,-54.27349
2017-11-27 20:00:00+00:00,247.0,251.0,8.43,9.59,,47.59359,-54.27349
2017-11-27 20:10:00+00:00,254.0,252.0,11.31,13.75,,47.59359,-54.27349
2017-11-27 20:20:00+00:00,249.0,246.0,11.66,13.02,,47.59359,-54.27349
2017-11-27 20:30:00+00:00,255.0,255.0,10.1,11.15,,47.59359,-54.27349
2017-11-27 20:40:00+00:00,260.0,262.0,11.0,12.25,,47.59359,-54.27349
2017-11-27 20:50:00+00:00,257.0,254.0,9.54,11.25,,47.59359,-54.27349
2017-11-27 21:00:00+00:00,262.0,263.0,10.8,12.7,,47.59359,-54.27349
2017-11-27 21:10:00+00:00,267.0,269.0,9.23,10.48,,47.59359,-54.27349
2017-11-27 21:20:00+00:00,267.0,262.0,10.15,11.05,,47.59359,-54.27349
2017-11-27 21:30:00+00:00,268.0,272.0,9.44,11.02,,47.59359,-54.27349
2017-11-27 21:40:00+00:00,266.0,261.0,10.13,11.87,,47.59359,-54.27349
2017-11-27 21:50:00+00:00,264.0,260.0,10.31,11.32,,47.59359,-54.27349
2017-11-27 22:00:00+00:00,264.0,263.0,10.5,12.24,,47.59359,-54.27349
2017-11-27 22:10:00+00:00,264.0,263.0,10.24,11.32,,47.59359,-54.27349
2017-11-27 22:20:00+00:00,257.0,257.0,10.66,12.06,,47.59359,-54.27349
2017-11-27 22:30:00+00:00,263.0,257.0,10.26,11.76,,47.59359,-54.27349
2017-11-27 22:40:00+00:00,258.0,261.0,11.63,14.43,,47.59359,-54.27349
2017-11-27 22:50:00+00:00,265.0,271.0,11.0,12.21,,47.59359,-54.27349
2017-11-27 23:00:00+00:00,273.0,276.0,10.78,13.09,,47.59359,-54.27349
2017-11-27 23:10:00+00:00,262.0,262.0,10.01,11.39,,47.59359,-54.27349
2017-11-27 23:20:00+00:00,262.0,261.0,9.44,11.29,,47.59359,-54.27349
2017-11-27 23:30:00+00:00,255.0,250.0,10.08,11.15,,47.59359,-54.27349
2017-11-27 23:40:00+00:00,258.0,260.0,10.25,11.72,,47.59359,-54.27349
2017-11-27 23:50:00+00:00,263.0,264.0,11.24,12.51,,47.59359,-54.27349
